TIME,DELAY(SENSOR),PRES,T(CTD),SAL,OXYGEN,RAWTEMP,T(OPTODE),TCPHASE,FLUOR,BETA(BETA700),BETA(BETA412),BETA(BETA440),CDOM,C(CSC),ED(ED412.40),ED(ED444.00),ED(ED489.70),ED(ED554.30),LU(LU411.80),LU(LU443.40),LU(LU489.60),LU(LU554.10),COMP,TILTX,TILTX(TILTY),CHECK
1354310842,5809,497.7900085449219000,6.1620001792907715,34.1502990722656250,66.7646102905273400,613.8342285156250000,6.1364498138427730,50.7199707031250000,52,104,87,80,79,15110,2147747026,2147419346,2148002788,2147873856,2147628973,2147077184,2148248713,2147196278,427,4,13,31593
1354311005,5812,487.4200134277344000,6.3220000267028810,34.1343002319335940,71.3789672851562500,609.0911865234375000,6.2901902198791500,50.0753211975097660,52,104,86,80,80,15107,2147748571,2147420315,2148006893,2147873700,2147628937,2147078710,2148247899,2147201133,39,4,13,25497
1354311175,5809,475.3299865722656000,6.3687000274658200,34.1310997009277340,75.3693237304687500,607.3181152343750000,6.3476099967956540,49.5656700134277340,52,104,91,81,80,15108,2147744192,2147421952,2148006592,2147871067,2147632201,2147080429,2148245184,2147202331,2405,4,13,4471
1354311314,5810,464.8299865722656000,6.5851998329162600,34.1091995239257800,81.6611633300781200,600.7410888671875000,6.5603218078613280,48.7250709533691400,52,104,92,80,79,15108,2147747684,2147422985,2148007405,2147870610,2147631689,2147073746,2148249325,2147195264,2496,4,13,33806
1354311463,5810,453.1499938964844000,6.8260998725891110,34.1077003479003900,92.9100570678711000,593.1035766601562000,6.8068180084228520,47.3472213745117200,52,104,88,81,80,15105,2147747172,2147421787,2148007003,2147872493,2147629814,2147075840,2148242395,2147201014,2342,4,13,36342
1354311590,5805,442.7500000000000000,7.2126002311706540,34.1095008850097660,99.8194732666015600,581.0219116210938000,7.1956410408020020,46.4168090820312500,51,106,88,80,78,15104,2147745746,2147419446,2148005074,2147873700,2147628699,2147076480,2148242880,2147204278,2304,4,13,11669
1354311731,5808,431.2399902343750000,7.4085001945495605,34.1067008972168000,108.3024978637695300,575.0618896484375000,7.3869590759277340,45.4458694458007800,51,103,87,81,77,15105,2147744073,2147422262,2148003904,2147873398,2147629796,2147082432,2148241901,2147199561,1264,4,13,5564
1354311858,5806,419.9100036621094000,7.6624999046325680,34.0993003845214840,115.8767013549804700,566.8585205078125000,7.6497759819030760,44.5595588684082000,51,105,88,79,77,15108,2147743872,2147421129,2148006720,2147871049,2147624475,2147082779,2148238518,2147198701,1076,4,13,3060
1354311973,5810,409.1000061035156000,7.8267998695373535,34.0975990295410160,123.2012023925781200,561.8248901367188000,7.8107528686523440,43.7774314880371100,50,103,90,80,76,15108,2147740918,2147421220,2148004937,2147867812,2147625252,2147082843,2148232457,2147200210,1251,4,13,11203
1354312090,5811,397.5599975585937500,7.9465999603271480,34.0918998718261700,129.5330963134765600,558.1591186523438000,7.9278488159179690,43.1337013244628900,51,105,90,79,76,15105,2147746240,2147423168,2148005760,2147874550,2147622966,2147089051,2148235556,2147201188,1275,4,13,44235
1354312205,5806,386.6000061035156000,8.1166000366210940,34.0900001525878900,136.9557952880859400,552.7700805664062000,8.0997829437255860,42.3829689025878900,50,104,90,80,76,15107,2147739748,2147420077,2148005147,2147874112,2147622153,2147082459,2148235501,2147197494,1818,4,13,40947
1354312334,5806,375.7500000000000000,8.4300003051757810,34.0983009338378900,140.9490966796875000,542.6605224609375000,8.4216766357421880,41.8660888671875000,50,105,90,80,76,15106,2147742582,2147422290,2148002569,2147871798,2147620992,2147098002,2148234916,2147199570,2651,4,13,9314
1354312485,5810,365.2600097656250000,8.6239004135131840,34.0960998535156250,146.5666046142578000,536.4851074218750000,8.6178970336914060,41.2880897521972660,50,104,86,79,75,15105,2147741942,2147421092,2148004114,2147875584,2147620681,2147091821,2148231113,2147200000,1948,4,13,25502
1354312705,5809,351.3699951171875000,9.0488004684448240,34.0900993347168000,165.5809020996093800,522.5629882812500000,9.0591697692871100,39.5518188476562500,50,104,88,80,73,15105,2147735113,2147420891,2148002477,2147872621,2147619099,2147094665,2148228928,2147202724,2365,4,13,54558
1354312832,5807,340.2699890136719000,9.4125003814697270,34.0992012023925800,175.2454986572265600,511.3327941894531000,9.4140529632568360,38.6560516357421900,50,104,84,81,73,15104,2147734811,2147421065,2148005257,2147870683,2147617654,2147099629,2148228827,2147200530,1827,3,13,28445
1354312961,5807,328.6499938964844000,9.7733001708984380,34.1022987365722660,185.3934020996093800,499.7544860839844000,9.7789821624755860,37.7595291137695300,50,105,89,81,72,15105,2147736118,2147422592,2148006418,2147872530,2147616009,2147103049,2148228315,2147199844,1566,3,13,63570
1354313088,5809,317.8299865722656000,10.1764001846313480,34.1090011596679700,191.9279937744140600,487.2149047851562500,10.1731595993042000,37.1175308227539060,49,104,89,80,72,15104,2147735204,2147422601,2148005312,2147870811,2147613184,2147099053,2148228717,2147199826,48,4,14,7850
1354313215,5808,306.5599975585937500,10.7719001770019530,34.1377983093261700,192.7205047607422000,467.3197937011719000,10.7964296340942380,36.7342300415039060,49,106,87,81,71,15103,2147730368,2147424192,2148009005,2147874669,2147611995,2147102893,2148224475,2147204068,3512,3,13,54395
1354313332,5805,295.4299926757812500,11.1611995697021480,34.1496009826660160,198.0791931152343800,455.3931884765625000,11.1688899993896480,36.1996116638183600,49,104,90,80,71,15100,2147728228,2147425270,2148013110,2147871332,2147610816,2147108434,2148222857,2147204690,3041,4,14,60660
1354313447,5807,283.3099975585937500,11.5255002975463870,34.1573982238769500,199.7664031982422000,443.1719055175781000,11.5496997833251950,35.8960189819335940,49,104,88,80,70,15101,2147727250,2147427245,2148023497,2147872804,2147607168,2147114944,2148225654,2147205796,3233,3,13,13925
1354313550,5809,272.7600097656250000,11.8387002944946290,34.1673011779785160,202.5652008056640600,433.6628112792969000,11.8454198837280270,35.5720405578613300,48,104,86,79,69,15100,2147727542,2147428306,2148027163,2147871862,2147604544,2147119652,2148225014,2147203986,2003,3,13,52453
1354313680,5808,263.4200134277344000,12.5268001556396480,34.2051010131835940,201.8258056640625000,412.6482849121094000,12.4973096847534180,35.2820014953613300,48,104,90,81,70,15098,2147724544,2147431250,2148040073,2147872512,2147601682,2147123611,2148231414,2147205220,1774,3,14,4094
1354314040,5811,252.3099975585937500,13.2046003341674800,34.2486991882324200,205.1443023681640600,390.0914916992187500,13.1947298049926760,34.7305488586425800,49,106,86,80,69,15095,2147720566,2147434486,2148042880,2147876818,2147593618,2147130633,2148222153,2147206948,977,4,13,59557
1354314203,5812,240.5299987792968800,13.8951997756958000,34.2785987854003900,207.4338989257812500,367.1469116210937500,13.9019899368286130,34.2434806823730500,49,103,86,81,68,15096,2147720585,2147439286,2148047314,2147876772,2147595867,2147133065,2148227712,2147208667,2405,3,14,56853
1354314338,5810,228.4299926757812500,14.4924001693725590,34.3428001403808600,209.5200042724609400,347.2255859375000000,14.5145301818847660,33.8223686218261700,48,105,88,81,67,15094,2147719817,2147442733,2148056713,2147873764,2147591670,2147143771,2148228726,2147207835,3272,4,14,41504
1354314441,5810,218.1600036621093800,15.2821998596191400,34.4329986572265600,210.7077941894531200,322.6510009765625000,15.2685098648071290,33.3897399902343750,50,105,88,80,67,15095,2147721408,2147448786,2148071908,2147872082,2147588928,2147150061,2148233115,2147205010,268,4,14,56568
1354314570,5809,207.0800018310547000,16.4367008209228500,34.5690002441406250,210.2808990478515600,286.3338012695312500,16.3802394866943360,32.8851890563964840,49,105,87,80,67,15089,2147720786,2147462747,2148090139,2147872740,2147584960,2147163172,2148238628,2147209261,1395,3,14,11913
1354314709,5811,198.3800048828125000,16.9428005218505860,34.6484985351562500,211.8473052978515600,267.3334960937500000,16.9610195159912100,32.5260696411132800,49,103,90,81,66,15090,2147718436,2147475200,2148112612,2147872064,2147584009,2147179547,2148243117,2147214582,410,3,14,32563
1354314788,5807,194.2200012207031200,17.4242000579834000,34.7071990966796900,211.6172027587890600,250.8276977539062500,17.4652595520019530,32.3055686950683600,50,103,85,80,65,15086,2147726884,2147510756,2148214409,2147870692,2147582701,2147205586,2148286720,2147214400,255,3,14,38780
1354314867,5807,190.6399993896484400,17.8976001739501950,34.7705993652343750,213.6022033691406200,237.4093933105468800,17.8750705718994140,32.0089492797851560,50,104,88,79,66,15088,2147730413,2147532891,2148265499,2147873856,2147579995,2147213842,2148313499,2147216265,3184,3,14,30052
1354314960,5807,186.2700042724609400,18.3610000610351560,34.8441009521484400,215.0339050292968800,222.0337066650390600,18.3446102142334000,31.7180995941162100,50,103,87,80,65,15088,2147734080,2147548132,2148298642,2147874550,2147583067,2147238957,2148325449,2147224036,849,3,14,8773
1354315039,5809,182.0200042724609400,18.6089000701904300,34.8866004943847660,217.1092987060547000,213.6692962646484400,18.6000595092773440,31.4924297332763670,50,105,89,80,65,15087,2147736457,2147584438,2148376027,2147875181,2147582628,2147257179,2148365348,2147222198,3405,3,14,19209
1354315106,5809,177.7599945068359400,18.9585990905761720,34.9392013549804700,217.2973022460937500,201.0545959472656200,18.9853591918945300,31.3102207183837900,51,102,89,81,64,15085,2147741312,2147585984,2148366125,2147870610,2147582912,2147260827,2148356717,2147223753,1980,3,15,64651
1354315161,5807,174.1600036621093800,19.2957992553710940,34.9875984191894500,218.1806030273437500,190.2351989746093800,19.3159294128417970,31.1171207427978500,51,104,89,81,63,15087,2147736786,2147568475,2148314560,2147872045,2147579538,2147256438,2148326281,2147221805,892,3,14,7930
1354315230,5807,169.6499938964843800,19.6061992645263670,35.0242996215820300,218.0323944091797000,181.7698059082031200,19.5746498107910160,31.0105705261230470,54,105,85,81,65,15080,2147762569,2147661814,2148534902,2147873042,2147590482,2147313819,2148437485,2147233170,523,3,15,38938
1354315285,5811,166.2700042724609400,19.6972999572753900,35.0443000793457000,218.4669952392578000,177.6894989013672000,19.6993808746337900,30.9330997467041000,55,104,86,80,64,15080,2147758125,2147648950,2148477467,2147873728,2147590308,2147309705,2148408164,2147227657,89,3,15,29758
1354315352,5807,162.4700012207031200,19.7798004150390620,35.0584983825683600,219.2471923828125000,175.2303924560547000,19.7745704650878900,30.8596191406250000,55,104,87,81,63,15081,2147776585,2147711817,2148609398,2147872914,2147596352,2147347986,2148471506,2147231990,2804,2,15,39379
1354315431,5811,158.5299987792968800,19.8911991119384770,35.0736007690429700,219.7053070068359400,171.5175933837890600,19.8880996704101560,30.7862396240234380,56,105,88,80,63,15079,2147780681,2147699428,2148557622,2147872704,2147596297,2147339044,2148444699,2147235510,2402,3,15,27639
1354315522,5810,154.8300018310547000,20.1005001068115230,35.0931015014648440,219.1746978759765600,165.0167999267578000,20.0869293212890620,30.7266197204589840,58,105,88,81,63,15074,2147811821,2147782555,2148730166,2147874340,2147609362,2147399305,2148533686,2147242322,3173,2,16,2404
1354315639,5805,151.2299957275390600,20.2618007659912100,35.1127014160156250,219.2454071044922000,159.4945983886718800,20.2558898925781250,30.6494407653808600,59,106,88,81,63,15074,2147831524,2147809124,2148761426,2147874002,2147616905,2147413120,2148546706,2147241737,924,2,15,58975
1354315778,5811,147.0200042724609400,20.6534004211425780,35.1459007263183600,218.5088043212890600,147.3722991943359400,20.6269798278808600,30.5265998840332030,66,107,88,81,63,15065,2147923803,2148043273,2149218496,2147879131,2147656658,2147555172,2148763693,2147256704,739,2,15,7512
1354315917,5806,142.7400054931640600,20.8633995056152340,35.1679000854492200,219.3569030761718800,140.1168975830078000,20.8492298126220700,30.3871002197265620,72,110,87,82,63,15057,2147992301,2148165357,2149412160,2147879286,2147681618,2147622756,2148849718,2147263771,450,3,15,38616
1354316020,5810,138.5200042724609400,21.0186004638671880,35.1820983886718750,220.2389984130859400,134.9230041503906200,21.0084095001220700,30.2736206054687500,76,113,88,81,62,15051,2148124489,2148417536,2149868516,2147885970,2147735853,2147753005,2149049691,2147278747,940,2,15,8782
1354316123,5805,134.7899932861328000,21.2499008178710940,35.2013015747070300,222.4546051025390600,127.5351028442382800,21.2349300384521500,30.0644207000732420,81,114,88,81,61,15044,2148305837,2148753709,2150467346,2147887899,2147810688,2147941897,2149320201,2147298194,1033,2,15,57516
1354316225,5809,130.6600036621093800,21.5352001190185550,35.2006988525390600,223.4356994628906200,116.6531982421875000,21.5688591003417970,29.8736305236816400,85,117,89,83,63,15032,2148447021,2148937024,2150717120,2147894838,2147871296,2148032996,2149420726,2147309906,2071,2,15,27447
1354316316,5810,126.4100036621093800,21.7159004211425780,35.1986007690429700,227.0205993652343800,111.8714981079101600,21.7157001495361330,29.6345691680908200,91,117,89,82,62,15024,2148802249,2149519561,2151692434,2147905088,2148015396,2148326253,2149841078,2147340553,2473,2,15,64027
1354316395,5807,122.7500000000000000,21.7740001678466800,35.2009010314941400,228.5202026367187500,110.1485977172851600,21.7686195373535160,29.5394706726074220,95,117,89,83,62,15018,2149039232,2149821540,2152095506,2147913380,2148108873,2148461449,2149987840,2147356452,1838,2,15,48212
1354316486,5811,118.8600006103515600,22.0382995605468750,35.2186012268066400,230.6150970458984400,101.8449020385742200,22.0238304138183600,29.3316192626953120,112,120,90,82,63,15001,2149270464,2150053641,2152334829,2147921398,2148195657,2148538185,2150043657,2147364781,1688,2,15,31552
1354316603,5810,115.3199996948242200,22.0902996063232420,35.2044982910156250,231.9985961914062500,99.7372131347656200,22.0886402130126950,29.2389297485351560,121,119,89,83,62,14989,2150157138,2151355748,2154374372,2147951076,2148529563,2149115666,2150832502,2147429750,1042,2,15,11758
1354316766,5807,111.0800018310546900,22.3546009063720700,35.2165985107421900,236.2747039794922000,91.6831436157226600,22.3364505767822270,28.9356002807617200,124,118,91,82,62,14989,2151176146,2152585883,2155983104,2147983990,2148897974,2149600347,2151402569,2147484114,3482,2,15,13074
1354316893,5807,106.4300003051757800,22.5613994598388670,35.1846008300781250,238.3975067138672000,84.5977706909179700,22.5546398162841800,28.7480907440185550,130,121,91,84,60,14981,2152493979,2154134692,2157818916,2148023323,2149361197,2150159616,2151984557,2147551158,825,2,15,27970
1354316972,5808,102.7799987792968800,22.7317008972167970,35.1764984130859400,239.7232971191406200,79.2647705078125000,22.7189903259277340,28.6203098297119140,134,119,90,83,62,14965,2153577846,2155321810,2159100745,2148053156,2149740004,2150575570,2152406162,2147594066,553,2,15,41235
1354317075,5810,98.4599990844726600,22.8225994110107420,35.1674995422363300,241.2774047851562500,76.1999664306640600,22.8134899139404300,28.5116291046142580,130,121,92,83,61,14966,2155035931,2156866212,2160662500,2148104868,2150271405,2151143469,2152993453,2147665270,2801,2,16,19111
1354317130,5808,96.1299972534179700,22.9321002960205080,35.1693000793457000,241.1378936767578000,71.6668167114257800,22.9533290863037100,28.4611206054687500,122,121,89,83,61,14967,2155988489,2157912228,2161717156,2148139721,2150652068,2151570724,2153384128,2147715474,2215,1,15,33876
1354317187,5805,94.0800018310546900,23.2565002441406250,35.1727981567382800,241.9669036865234400,62.6343803405761700,23.2322292327880860,28.3107891082763670,119,121,88,84,61,14977,2157367149,2159635163,2163876333,2148196653,2151186916,2152264009,2154169700,2147792530,1656,1,16,61009
1354317266,5808,92.4400024414062500,23.3201999664306640,35.1745986938476560,242.9382019042968800,60.0603294372558600,23.3117694854736330,28.2352790832519530,111,120,90,85,61,14974,2157379264,2159480256,2163447561,2148202523,2151210971,2152218834,2154042587,2147786669,1770,1,16,1967
1354317561,5809,89.8700027465820300,23.7801990509033200,35.1920013427734400,243.7830047607422000,46.1260414123535160,23.7428703308105470,28.0246505737304700,104,122,90,85,61,14976,2160526628,2163114806,2167685147,2148319414,2152535789,2153875785,2155850651,2147964891,1070,2,16,49775
1354317616,5808,88.2900009155273400,23.9550991058349600,35.1926994323730500,244.3735961914062500,41.1322402954101560,23.8975906372070300,27.9369697570800780,100,122,91,85,60,14970,2161780269,2164412086,2169098331,2148376832,2153157138,2154579172,2156543305,2148037376,516,2,15,5879
1354317814,5807,85.2900009155273400,23.9622993469238280,35.1702003479003900,245.3901062011718800,39.2333412170410160,23.9564495086669920,27.8688793182373050,96,127,93,85,60,14957,2164965997,2167887762,2172689289,2148543213,2154775158,2156365293,2158206354,2148218788,1331,2,16,50795
1354317869,5813,82.2900009155273400,24.0888996124267580,35.1478996276855500,244.3907928466797000,35.6849594116210940,24.0664901733398440,27.8687400817871100,97,127,92,83,60,14953,2168278893,2171446098,2176253677,2148700964,2156430482,2158200054,2159974674,2148407716,1604,2,16,58295
1354317924,5808,79.3099975585937500,24.2639999389648440,35.1511993408203100,242.6761016845703000,29.7631492614746100,24.2502803802490230,27.8711395263671880,97,124,94,84,59,14948,2171249901,2174647798,2179473810,2148879305,2158035931,2159958692,2161628352,2148585709,1579,1,16,56439
1354317979,5808,76.7900009155273400,24.7747993469238280,35.1834983825683600,240.1828002929687500,15.3787202835083000,24.6974697113037100,27.8043403625488280,98,126,92,84,59,14947,2174346578,2177997750,2183123026,2149112621,2159707629,2161747492,2163285403,2148774619,1414,2,16,42800
1354318034,5808,75.3899993896484400,24.8899993896484380,35.2010993957519500,239.0260009765625000,10.8529596328735350,24.8384094238281250,27.8001708984375000,94,126,90,85,60,14958,2173647030,2177060169,2181876562,2149117814,2159559789,2161470308,2162909924,2148753901,1738,1,16,18150
1354318184,5809,73.6399993896484400,25.2926006317138670,35.2331008911132800,236.1560974121093800,-2.3960440158843994,25.2516498565673830,27.7659797668457030,82,125,93,85,58,14955,2176187766,2179942994,2185076690,2149329499,2161721947,2163711698,2164847058,2148955200,1504,1,16,27733
1354318455,5804,70.8700027465820300,25.3096008300781250,35.2382011413574200,235.2030944824218800,-4.1217498779296875,25.3055496215820300,27.7879600524902340,70,123,92,85,57,14955,2179934528,2183835044,2189460937,2149702244,2167132534,2168977490,2169015798,2149341001,3577,2,16,20424
1354318510,5805,68.4199981689453100,25.3101005554199220,35.2378997802734400,235.3014068603515600,-4.1426000595092770,25.3062000274658200,27.7831707000732420,70,124,94,86,56,14951,2182288118,2186303168,2191940736,2149990253,2170429586,2172190619,2171530249,2149600740,3412,1,16,48780
1354318565,5808,65.8600006103515600,25.3204002380371100,35.2396011352539060,235.3724060058593800,-4.4866199493408200,25.3169498443603500,27.7758293151855470,69,123,95,84,58,14949,2185451236,2189746148,2195605686,2150473682,2174127094,2175709211,2174186377,2149895021,3435,2,16,12042
1354318620,5809,63.3400001525878900,25.3236999511718750,35.2401008605957000,235.3876953125000000,-4.6224379539489750,25.3211898803710940,27.7735099792480470,67,123,92,86,57,14946,2189235894,2194053577,2200396397,2150970633,2178335003,2179945353,2177556909,2150256283,3317,1,16,59307
1354318675,5806,60.8800010681152340,25.3237991333007800,35.2403984069824200,235.4889984130859400,-4.6636462211608890,25.3224792480468750,27.7684497833251950,68,122,93,86,58,14948,2193398793,2198533220,2205034450,2151740205,2182892452,2184357403,2180997842,2150682843,3029,2,16,46748
1354318732,5808,58.3100013732910160,25.3241004943847660,35.2402992248535160,235.4674987792968800,-4.6717100143432620,25.3227291107177730,27.7691898345947270,67,124,91,84,56,14942,2195922514,2201080301,2207462656,2152299968,2186763584,2188049435,2183711040,2151000228,3021,2,16,61693
1354318787,5811,55.7200012207031250,25.3246002197265620,35.2403984069824200,235.6898040771484400,-4.7023949623107910,25.3236904144287100,27.7588996887207030,67,123,92,84,56,14944,2199170139,2204618669,2211230646,2152975762,2191071881,2192291172,2187006025,2151408859,3090,1,16,42374
1354318842,5805,52.9799995422363300,25.3243999481201170,35.2410011291503900,235.6130065917968800,-4.7617969512939450,25.3255500793457030,27.7616195678710940,66,122,91,84,60,14945,2206467026,2212434962,2219616137,2154459465,2197928896,2199068233,2192382509,2152131145,3211,2,16,45761
1354318897,5807,50.0000000000000000,25.3253993988037100,35.2410011291503900,235.7160034179687500,-4.7990708351135250,25.3267097473144530,27.7564392089843750,64,123,94,86,60,14941,2213591771,2220264347,2228256475,2156370404,2204478948,2205400192,2197276589,2152897453,3479,2,16,312
1354318952,5809,46.9300003051757800,25.3271007537841800,35.2412986755371100,235.9181976318359400,-4.8337869644165040,25.3278007507324220,27.7469291687011720,64,124,93,84,59,14936,2221187474,2228324233,2236907766,2158557906,2212633929,2213655030,2203813622,2153975350,47,1,16,56296
1354319007,5815,43.8100013732910160,25.3265991210937500,35.2406997680664060,235.8466949462890600,-4.8805031776428220,25.3292598724365230,27.7494697570800780,63,122,89,87,57,14936,2229348178,2237079241,2246286701,2161294354,2221612672,2222471296,2210836681,2155167094,3589,1,16,40903
1354319064,5810,40.5200004577636700,25.3274993896484380,35.2402000427246100,235.9140014648437500,-4.9024338722229000,25.3299407958984380,27.7462196350097660,64,123,91,86,58,14941,2239246546,2247845696,2258240795,2165360704,2232187364,2232782619,2218833526,2156715693,126,1,16,36110
1354319119,5806,37.4300003051757800,25.3271007537841800,35.2412986755371100,235.9981994628906200,-4.9950780868530270,25.3328399658203120,27.7411594390869140,61,122,90,85,58,14934,2249488941,2258201234,2269001078,2170190217,2243673664,2243853275,2227403574,2158550765,450,2,15,45464
1354319174,5807,34.5299987792968750,25.3271007537841800,35.2406997680664060,236.1582946777343800,-5.0169110298156740,25.3335208892822270,27.7338008880615230,60,123,90,84,60,14937,2261887570,2271562532,2283501458,2176001984,2255300342,2255211730,2236277293,2160485248,3535,2,16,42049
1354319229,5806,31.7900009155273440,25.3276996612548830,35.2400016784668000,236.1629943847656200,-5.0422840118408200,25.3343105316162100,27.7332305908203120,59,122,91,83,54,14936,2271164150,2281285659,2293887744,2181918930,2266736667,2266031040,2244395684,2162524406,3514,2,16,31079
1354319284,5808,29.1200008392334000,25.3267993927001950,35.2406997680664060,236.2427062988281200,-5.2423238754272460,25.3405609130859380,27.7271900177001950,58,120,95,85,56,14938,2285248256,2296506980,2310309476,2191363465,2278404918,2277007561,2252738733,2165068909,3316,2,16,28805
1354319339,5809,26.5000000000000000,25.3276004791259770,35.2401008605957000,236.3578033447265600,-5.2230482101440430,25.3399600982666000,27.7222690582275400,59,122,93,84,57,14934,2296386377,2308163382,2322499364,2199253924,2294016502,2292279323,2264657554,2168561929,3098,2,15,41692
1354319396,5805,23.9099998474121100,25.3278999328613280,35.2401008605957000,236.4488067626953000,-5.2326860427856445,25.3402595520019530,27.7180099487304700,58,122,95,85,58,14936,2306745654,2319089910,2333716004,2210987163,2310101366,2307675602,2276450642,2171824283,2984,1,16,25004
